Weather History for KFEP - January, 2013

Change the Weather History Date:

Wednesday, January 9, 2013

  Actual Average Record
Temperature  
Mean Temperature 32 °F -  
Max Temperature 40 °F 23 °F 53 °F (2002)
Min Temperature 25 °F 6 °F -16 °F (1986)
Degree Days  
Heating Degree Days 32    
Moisture  
Dew Point 29 °F    
Average Humidity 80    
Maximum Humidity 89    
Minimum Humidity 59    
Precipitation  
Precipitation 0.00 in - - ()
Sea Level Pressure  
Sea Level Pressure 30.28 in    
Wind  
Wind Speed 12 mph (SW)    
Max Wind Speed 22 mph    
Max Gust Speed 30 mph    
Visibility 10 miles    
Events      
Averages and records for this station are not official NWS values.
T = Trace of Precipitation, MM = Missing Value Source: NWS Daily Summary

Daily Weather History Graph

Daily Weather History Graph

Search for Another Location

Airport or City:

Trip Planner

Search our weather history database for the weather conditions in past years. The results will help you decide how hot, cold, wet, or windy it might be!

Date:

Astronomy

Jan. 09, 2013 Rise Set
Actual Time 7:26 AM CST 4:44 PM CST
Civil Twilight 6:55 AM CST 5:16 PM CST
Nautical Twilight 6:20 AM CST 5:51 PM CST
Astronomical Twilight 5:46 AM CST 6:24 PM CST
Moon 5:05 AM CST (1/9) 2:46 PM CST (1/9)
Length of Visible Light 10h 21m
Length of Day
9h 18m
Waning Crescent, 6% of the Moon is Illuminated
Jan 9
Waning Crescent
Jan 11
New
Jan 18
First Quarter
Jan 26
Full
Feb 3
Last Quarter

Hourly Weather History & Observations

Time (CST) Temp. Windchill Dew Point Humidity Pressure Visibility Wind Dir Wind Speed Gust Speed Precip Events Conditions
12:15 AM 38.7 °F 29.1 °F 32.9 °F 80% 29.99 in 10.0 mi South 18.4 mph 26.5 mph N/A   Clear
12:35 AM 38.7 °F 28.8 °F 33.3 °F 81% 29.99 in 10.0 mi SSW 19.6 mph 25.3 mph N/A   Clear
12:55 AM 38.5 °F 29.2 °F 33.6 °F 83% 29.99 in 10.0 mi SSW 17.3 mph 23.0 mph N/A   Clear
1:15 AM 37.8 °F 29.4 °F 33.3 °F 84% 30.00 in 10.0 mi SSW 13.8 mph 21.9 mph N/A   Mostly Cloudy
1:35 AM 38.7 °F 31.4 °F 33.8 °F 83% 30.01 in 10.0 mi SSW 11.5 mph - N/A   Overcast
1:55 AM 38.7 °F 30.9 °F 33.3 °F 81% 30.03 in 10.0 mi SW 12.7 mph - N/A   Scattered Clouds
2:15 AM 38.7 °F 31.8 °F 33.3 °F 81% 30.03 in 10.0 mi SW 10.4 mph - N/A   Clear
2:35 AM 37.0 °F 29.8 °F 32.4 °F 83% 30.04 in 10.0 mi WSW 10.4 mph 16.1 mph N/A   Clear
2:55 AM 36.1 °F 28.7 °F 31.8 °F 84% 30.06 in 10.0 mi WSW 10.4 mph - N/A   Clear
3:15 AM 36.1 °F 29.3 °F 31.8 °F 84% 30.06 in 10.0 mi SW 9.2 mph - N/A   Clear
3:35 AM 35.6 °F 28.0 °F 31.5 °F 85% 30.08 in 10.0 mi SW 10.4 mph 16.1 mph N/A   Clear
3:55 AM 34.5 °F 26.7 °F 30.7 °F 86% 30.08 in 10.0 mi WSW 10.4 mph - N/A   Clear
4:15 AM 33.8 °F 25.8 °F 29.8 °F 85% 30.09 in 10.0 mi SW 10.4 mph - N/A   Clear
4:35 AM 33.8 °F 24.8 °F 29.8 °F 85% 30.10 in 10.0 mi WSW 12.7 mph - N/A   Clear
4:55 AM 33.8 °F 25.8 °F 29.8 °F 85% 30.12 in 10.0 mi WSW 10.4 mph 16.1 mph N/A   Clear
5:15 AM 33.8 °F 27.0 °F 30.0 °F 86% 30.14 in 10.0 mi SW 8.1 mph - N/A   Clear
5:35 AM 33.8 °F 27.7 °F 30.2 °F 87% 30.14 in 10.0 mi SW 6.9 mph - N/A   Clear
5:55 AM 33.8 °F 26.4 °F 30.2 °F 87% 30.15 in 10.0 mi SW 9.2 mph - N/A   Clear
6:15 AM 33.8 °F 26.4 °F 30.2 °F 87% 30.16 in 10.0 mi SW 9.2 mph - N/A   Clear
6:35 AM 33.8 °F 27.0 °F 30.2 °F 87% 30.16 in 10.0 mi SW 8.1 mph - N/A   Clear
6:55 AM 33.4 °F 26.6 °F 30.0 °F 87% 30.16 in 10.0 mi SW 8.1 mph - N/A   Clear
7:15 AM 31.6 °F 24.4 °F 28.0 °F 87% 30.17 in 10.0 mi SW 8.1 mph - N/A   Clear
7:35 AM 32.4 °F 25.3 °F 29.5 °F 89% 30.18 in 10.0 mi SW 8.1 mph - N/A   Clear
7:55 AM 31.5 °F 22.3 °F 27.9 °F 87% 30.18 in 10.0 mi SSW 11.5 mph - N/A   Clear
8:15 AM 31.6 °F 23.1 °F 28.0 °F 87% 30.20 in 10.0 mi SW 10.4 mph - N/A   Clear
8:35 AM 33.8 °F 25.8 °F 30.2 °F 87% 30.21 in 10.0 mi SW 10.4 mph 16.1 mph N/A   Clear
8:55 AM 33.8 °F 25.3 °F 29.7 °F 85% 30.22 in 10.0 mi SW 11.5 mph - N/A   Clear
9:15 AM 33.8 °F 24.8 °F 29.7 °F 85% 30.23 in 10.0 mi SW 12.7 mph - N/A   Clear
9:35 AM 34.2 °F 24.8 °F 30.2 °F 85% 30.24 in 10.0 mi SW 13.8 mph 19.6 mph N/A   Clear
9:55 AM 36.1 °F 27.7 °F 31.6 °F 84% 30.24 in 10.0 mi SW 12.7 mph - N/A   Clear
10:15 AM 36.1 °F 26.9 °F 31.6 °F 84% 30.26 in 10.0 mi SSW 15.0 mph 19.6 mph N/A   Clear
10:35 AM 36.1 °F 25.5 °F 31.8 °F 84% 30.27 in 10.0 mi SSW 19.6 mph 26.5 mph N/A   Clear
10:55 AM 36.1 °F 25.5 °F 32.0 °F 85% 30.28 in 10.0 mi SSW 19.6 mph 26.5 mph N/A   Clear
11:15 AM 38.7 °F 29.5 °F 33.1 °F 80% 30.30 in 10.0 mi SW 17.3 mph - N/A   Clear
11:35 AM 38.7 °F 29.8 °F 32.9 °F 80% 30.32 in 10.0 mi SW 16.1 mph 24.2 mph N/A   Clear
11:55 AM 38.7 °F 28.6 °F 32.7 °F 79% 30.33 in 10.0 mi SW 20.7 mph 29.9 mph N/A   Clear
12:15 PM 38.7 °F 28.3 °F 31.1 °F 74% 30.32 in 10.0 mi SW 21.9 mph 27.6 mph N/A   Clear
12:35 PM 38.7 °F 28.8 °F 30.2 °F 72% 30.31 in 10.0 mi WSW 19.6 mph 24.2 mph N/A   Clear
12:55 PM 38.8 °F 30.4 °F 30.4 °F 72% 30.33 in 10.0 mi WSW 15.0 mph 25.3 mph N/A   Clear
1:15 PM 39.7 °F 31.2 °F 30.4 °F 69% 30.33 in 10.0 mi WSW 16.1 mph 20.7 mph N/A   Clear
1:35 PM 39.9 °F 32.1 °F 29.8 °F 67% 30.34 in 10.0 mi WSW 13.8 mph 23.0 mph N/A   Clear
1:55 PM 39.7 °F 31.9 °F 29.5 °F 67% 30.35 in 10.0 mi WSW 13.8 mph 20.7 mph N/A   Clear
2:15 PM 40.1 °F 33.2 °F 29.3 °F 65% 30.36 in 10.0 mi WSW 11.5 mph 19.6 mph N/A   Clear
2:35 PM 40.1 °F 32.4 °F 28.6 °F 63% 30.37 in 10.0 mi WSW 13.8 mph 18.4 mph N/A   Clear
2:55 PM 40.1 °F 32.7 °F 28.9 °F 64% 30.39 in 10.0 mi WSW 12.7 mph - N/A   Clear
3:15 PM 40.1 °F 32.7 °F 26.8 °F 59% 30.38 in 10.0 mi West 12.7 mph 20.7 mph N/A   Clear
3:35 PM 39.0 °F 32.3 °F 26.8 °F 62% 30.38 in 10.0 mi West 10.4 mph 17.3 mph N/A   Clear
3:55 PM 38.7 °F 32.4 °F 27.7 °F 65% 30.39 in 10.0 mi West 9.2 mph - N/A   Clear
4:15 PM 38.7 °F 33.6 °F 28.9 °F 68% 30.39 in 10.0 mi West 6.9 mph - N/A   Clear
4:35 PM 38.7 °F 32.9 °F 29.3 °F 69% 30.41 in 10.0 mi WSW 8.1 mph - N/A   Clear
4:55 PM 36.3 °F 30.8 °F 27.3 °F 70% 30.41 in 10.0 mi WSW 6.9 mph - N/A   Clear
5:15 PM 36.1 °F 31.4 °F 27.5 °F 71% 30.42 in 10.0 mi WSW 5.8 mph - N/A   Clear
5:35 PM 36.1 °F 30.6 °F 27.7 °F 71% 30.44 in 10.0 mi SW 6.9 mph - N/A   Clear
5:55 PM 35.4 °F 31.5 °F 27.1 °F 72% 30.44 in 10.0 mi SW 4.6 mph - N/A   Clear
6:15 PM 35.6 °F 29.9 °F 27.3 °F 72% 30.44 in 10.0 mi WSW 6.9 mph - N/A   Clear
6:35 PM 34.3 °F 31.4 °F 26.4 °F 73% 30.44 in 10.0 mi WSW 3.5 mph - N/A   Clear
6:55 PM 34.3 °F 31.4 °F 26.1 °F 72% 30.44 in 10.0 mi West 3.5 mph - N/A   Clear
7:15 PM 33.8 °F 30.8 °F 28.6 °F 81% 30.44 in 10.0 mi NW 3.5 mph - N/A   Clear
7:35 PM 30.2 °F - 26.2 °F 85% 30.45 in 10.0 mi Calm Calm - N/A   Clear
7:55 PM 32.0 °F - 27.1 °F 82% 30.44 in 10.0 mi Calm Calm - N/A   Clear
8:15 PM 28.6 °F - 23.7 °F 82% 30.44 in 10.0 mi Calm Calm - N/A   Clear
8:35 PM 28.8 °F - 25.2 °F 86% 30.45 in 10.0 mi Calm Calm - N/A   Clear
8:55 PM 28.9 °F 25.2 °F 24.4 °F 83% 30.45 in 10.0 mi ESE 3.5 mph - N/A   Clear
9:15 PM 28.8 °F 25.0 °F 25.2 °F 86% 30.45 in 10.0 mi South 3.5 mph - N/A   Clear
9:35 PM 27.5 °F 21.1 °F 23.7 °F 86% 30.45 in 10.0 mi South 5.8 mph - N/A   Clear
9:55 PM 28.6 °F 23.5 °F 24.6 °F 85% 30.46 in 10.0 mi SSW 4.6 mph - N/A   Clear
10:15 PM 29.7 °F 26.1 °F 25.0 °F 83% 30.46 in 10.0 mi South 3.5 mph - N/A   Clear
10:35 PM 25.7 °F 19.0 °F 22.5 °F 88% 30.47 in 10.0 mi South 5.8 mph - N/A   Clear
10:55 PM 30.4 °F 22.9 °F 26.1 °F 84% 30.48 in 10.0 mi South 8.1 mph - N/A   Clear
11:15 PM 28.9 °F - 25.0 °F 85% 30.48 in 10.0 mi Calm Calm - N/A   Clear
11:35 PM 31.5 °F 26.8 °F 26.8 °F 83% 30.48 in 10.0 mi SSW 4.6 mph - N/A   Clear
11:55 PM 28.8 °F 22.6 °F 24.4 °F 84% 30.48 in 10.0 mi South 5.8 mph - N/A   Clear